Location: Ellerstadt
(49.4644°N, 8.2615°E)
Time: 06:44:45
(UTC+00:00)

SPOT 3 Rocket - Pass Details

Date: 22 June 2021
Orbit: 779 x 794 km, 98.7° (Epoch: 03 August)

Event Time Altitude Azimuth Distance (km) Brightness Sun altitude
Rises 21:49:13 0° 222° (SW) 3,266 6.5 -13.8°
Reaches altitude 10° 21:53:10 10° 252° (WSW) 2,349 6.1 -14.0°
Maximum altitude 21:55:08 12° 275° (W) 2,211 6.2 -14.2°
Drops below altitude 10° 21:57:07 10° 297° (WNW) 2,360 6.8 -14.3°
Sets 22:01:08 0° 328° (NNW) 3,300 8.5 -14.5°
